owner,sensor,date,latitude,longitude,vertical_datum,direction_of_sea_water_velocity,sea_water_speed,upward_sea_water_velocity,qcFlag 
COMPS,ioos:station:USF.COMPS:C10:1,2010-10-01T00:00:00Z,27.1690,-82.9260,4.0,165.96375653207,16.492422502471,-99999.0,'1111122,1111122,1199999999' 
COMPS,ioos:station:USF.COMPS:C10:1,2010-10-01T01:00:00Z,27.1690,-82.9260,4.0,144.46232220803,17.204650534085,-99999.0,'1111122,1111122,1199999999' 
COMPS,ioos:station:USF.COMPS:C10:1,2010-10-01T02:00:00Z,27.1690,-82.9260,4.0,148.39249775375,15.264337522474,-99999.0,'1111122,1111122,1199999999' 
COMPS,ioos:station:USF.COMPS:C10:1,2010-10-01T03:00:00Z,27.1690,-82.9260,4.0,140.19442890773,15.620499351813,-99999.0,'1111122,1111122,1199999999' 
COMPS,ioos:station:USF.COMPS:C10:1,2010-10-01T04:00:00Z,27.1690,-82.9260,4.0,135.0,15.556349186104,-99999.0,'1111122,1111122,1199999999' 
COMPS,ioos:station:USF.COMPS:C10:1,2010-10-01T05:00:00Z,27.1690,-82.9260,4.0,132.510447078,16.2788205961,-99999.0,'1111122,1111122,1199999999' 
COMPS,ioos:station:USF.COMPS:C10:1,2010-10-01T06:00:00Z,27.1690,-82.9260,4.0,135.0,15.556349186104,-99999.0,'1111122,1111122,1199999999' 
COMPS,ioos:station:USF.COMPS:C10:1,2010-10-01T07:00:00Z,27.1690,-82.9260,4.0,124.69515353123,15.811388300842,-99999.0,'1111122,1111122,1199999999' 
COMPS,ioos:station:USF.COMPS:C10:1,2010-10-01T09:00:00Z,27.1690,-82.9260,4.0,147.26477372789,16.643316977093,-99999.0,'1111122,1111122,1199999999' 
COMPS,ioos:station:USF.COMPS:C10:1,2010-10-01T10:00:00Z,27.1690,-82.9260,4.0,147.99461679192,18.867962264113,-99999.0,'1111122,1111122,1199999999' 
COMPS,ioos:station:USF.COMPS:C10:1,2010-10-01T11:00:00Z,27.1690,-82.9260,4.0,143.13010235416,5.0,-99999.0,'1111122,1111122,1199999999' 
COMPS,ioos:station:USF.COMPS:C10:1,2010-10-01T12:00:00Z,27.1690,-82.9260,4.0,156.80140948635,15.231546211728,-99999.0,'1111122,1111122,1199999999' 
COMPS,ioos:station:USF.COMPS:C10:1,2010-10-01T13:00:00Z,27.1690,-82.9260,4.0,150.94539590092,10.295630140987,-99999.0,'1111122,1111122,1199999999' 
COMPS,ioos:station:USF.COMPS:C10:1,2010-10-01T14:00:00Z,27.1690,-82.9260,4.0,149.03624346793,11.661903789691,-99999.0,'1111122,1111122,1199999999' 
COMPS,ioos:station:USF.COMPS:C10:1,2010-10-01T15:00:00Z,27.1690,-82.9260,4.0,161.56505117708,6.3245553203368,-99999.0,'1111122,1111122,1199999999' 
COMPS,ioos:station:USF.COMPS:C10:1,2010-10-01T16:00:00Z,27.1690,-82.9260,4.0,167.47119229085,9.2195444572929,-99999.0,'1111122,1111122,1199999999' 
COMPS,ioos:station:USF.COMPS:C10:1,2010-10-01T17:00:00Z,27.1690,-82.9260,4.0,172.8749836511,8.0622577482985,-99999.0,'1111122,1111122,1199999999' 
COMPS,ioos:station:USF.COMPS:C10:1,2010-10-01T18:00:00Z,27.1690,-82.9260,4.0,168.69006752598,5.0990195135928,-99999.0,'1111122,1111122,1199999999' 
COMPS,ioos:station:USF.COMPS:C10:1,2010-10-01T19:00:00Z,27.1690,-82.9260,4.0,168.69006752598,5.0990195135928,-99999.0,'1111122,1111122,1199999999' 
COMPS,ioos:station:USF.COMPS:C10:1,2010-10-01T20:00:00Z,27.1690,-82.9260,4.0,158.19859051365,5.3851648071345,-99999.0,'1111122,1111122,1199999999' 
COMPS,ioos:station:USF.COMPS:C10:1,2010-10-01T21:00:00Z,27.1690,-82.9260,4.0,158.19859051365,5.3851648071345,-99999.0,'1111122,1111122,1199999999' 
COMPS,ioos:station:USF.COMPS:C10:1,2010-10-01T22:00:00Z,27.1690,-82.9260,4.0,165.96375653207,4.1231056256177,-99999.0,'1111122,1111122,1199999999' 
COMPS,ioos:station:USF.COMPS:C10:1,2010-10-01T23:00:00Z,27.1690,-82.9260,4.0,165.96375653207,4.1231056256177,-99999.0,'1111122,1111122,1199999999' 
COMPS,ioos:station:USF.COMPS:C10:1,2010-10-02T00:00:00Z,27.1690,-82.9260,4.0,135.0,5.6568542494924,-99999.0,'1111122,1111122,1199999999' 
COMPS,ioos:station:USF.COMPS:C10:1,2010-10-02T01:00:00Z,27.1690,-82.9260,4.0,180.0,7.0,-99999.0,'1111122,1111122,1199999999' 
COMPS,ioos:station:USF.COMPS:C10:1,2010-10-02T02:00:00Z,27.1690,-82.9260,4.0,161.56505117708,9.4868329805051,-99999.0,'1111122,1111122,1199999999' 
COMPS,ioos:station:USF.COMPS:C10:1,2010-10-02T03:00:00Z,27.1690,-82.9260,4.0,164.74488129694,11.401754250991,-99999.0,'1111122,1111122,1199999999' 
COMPS,ioos:station:USF.COMPS:C10:1,2010-10-02T04:00:00Z,27.1690,-82.9260,4.0,156.03751102542,9.8488578017961,-99999.0,'1111122,1111122,1199999999' 
COMPS,ioos:station:USF.COMPS:C10:1,2010-10-02T05:00:00Z,27.1690,-82.9260,4.0,150.25511870306,8.0622577482985,-99999.0,'1111122,1111122,1199999999' 
COMPS,ioos:station:USF.COMPS:C10:1,2010-10-02T06:00:00Z,27.1690,-82.9260,4.0,135.0,7.0710678118655,-99999.0,'1111122,1111122,1199999999' 
COMPS,ioos:station:USF.COMPS:C10:1,2010-10-02T07:00:00Z,27.1690,-82.9260,4.0,116.56505117708,8.9442719099992,-99999.0,'1111122,1111122,1199999999' 
COMPS,ioos:station:USF.COMPS:C10:1,2010-10-02T08:00:00Z,27.1690,-82.9260,4.0,119.05460409908,10.295630140987,-99999.0,'1111122,1111122,1199999999' 
COMPS,ioos:station:USF.COMPS:C10:1,2010-10-02T09:00:00Z,27.1690,-82.9260,4.0,120.96375653207,11.661903789691,-99999.0,'1111122,1111122,1199999999' 
COMPS,ioos:station:USF.COMPS:C10:1,2010-10-02T10:00:00Z,27.1690,-82.9260,4.0,131.63353933657,12.041594578792,-99999.0,'1111122,1111122,1199999999' 
COMPS,ioos:station:USF.COMPS:C10:1,2010-10-02T11:00:00Z,27.1690,-82.9260,4.0,141.34019174591,6.4031242374328,-99999.0,'1111122,1111122,1199999999' 
COMPS,ioos:station:USF.COMPS:C10:1,2010-10-02T12:00:00Z,27.1690,-82.9260,4.0,149.74356283647,13.89244398945,-99999.0,'1111122,1111122,1199999999' 
COMPS,ioos:station:USF.COMPS:C10:1,2010-10-02T13:00:00Z,27.1690,-82.9260,4.0,171.86989764584,14.142135623731,-99999.0,'1111122,1111122,1199999999' 
COMPS,ioos:station:USF.COMPS:C10:1,2010-10-02T14:00:00Z,27.1690,-82.9260,4.0,180.0,13.0,-99999.0,'1111122,1111122,1199999999' 
COMPS,ioos:station:USF.COMPS:C10:1,2010-10-02T15:00:00Z,27.1690,-82.9260,4.0,180.0,13.0,-99999.0,'1111122,1111122,1199999999' 
COMPS,ioos:station:USF.COMPS:C10:1,2010-10-02T16:00:00Z,27.1690,-82.9260,4.0,191.30993247402,10.198039027186,-99999.0,'1111122,1111122,1199999999' 
COMPS,ioos:station:USF.COMPS:C10:1,2010-10-02T17:00:00Z,27.1690,-82.9260,4.0,219.80557109227,7.8102496759067,-99999.0,'1111122,1111122,1199999999' 
COMPS,ioos:station:USF.COMPS:C10:1,2010-10-02T18:00:00Z,27.1690,-82.9260,4.0,225.0,4.2426406871193,-99999.0,'1111122,1111122,1199999999' 
COMPS,ioos:station:USF.COMPS:C10:1,2010-10-02T19:00:00Z,27.1690,-82.9260,4.0,270.0,3.0,-99999.0,'1111122,1111122,1199999999' 
COMPS,ioos:station:USF.COMPS:C10:1,2010-10-02T20:00:00Z,27.1690,-82.9260,4.0,0.0,0.0,-99999.0,'1114422,1114422,1199999999' 
COMPS,ioos:station:USF.COMPS:C10:1,2010-10-02T21:00:00Z,27.1690,-82.9260,4.0,0.0,2.0,-99999.0,'1111122,1114422,1199999999' 
COMPS,ioos:station:USF.COMPS:C10:1,2010-10-02T22:00:00Z,27.1690,-82.9260,4.0,180.0,1.0,-99999.0,'1113322,1111122,1199999999' 
COMPS,ioos:station:USF.COMPS:C10:1,2010-10-02T23:00:00Z,27.1690,-82.9260,4.0,180.0,3.0,-99999.0,'1111122,1111122,1199999999' 
COMPS,ioos:station:USF.COMPS:C10:1,2010-10-03T00:00:00Z,27.1690,-82.9260,4.0,180.0,6.0,-99999.0,'1111122,1111122,1199999999' 
COMPS,ioos:station:USF.COMPS:C10:1,2010-10-03T01:00:00Z,27.1690,-82.9260,4.0,149.03624346793,5.8309518948453,-99999.0,'1111122,1111122,1199999999' 
COMPS,ioos:station:USF.COMPS:C10:1,2010-10-03T02:00:00Z,27.1690,-82.9260,4.0,158.19859051365,5.3851648071345,-99999.0,'1111122,1111122,1199999999' 
COMPS,ioos:station:USF.COMPS:C10:1,2010-10-03T03:00:00Z,27.1690,-82.9260,4.0,165.96375653207,8.2462112512353,-99999.0,'1111122,1111122,1199999999' 
COMPS,ioos:station:USF.COMPS:C10:1,2010-10-03T04:00:00Z,27.1690,-82.9260,4.0,156.80140948635,7.6157731058639,-99999.0,'1111122,1111122,1199999999' 
COMPS,ioos:station:USF.COMPS:C10:1,2010-10-03T05:00:00Z,27.1690,-82.9260,4.0,161.56505117708,6.3245553203368,-99999.0,'1111122,1111122,1199999999' 
COMPS,ioos:station:USF.COMPS:C10:1,2010-10-03T06:00:00Z,27.1690,-82.9260,4.0,146.30993247402,7.211102550928,-99999.0,'1111122,1111122,1199999999' 
COMPS,ioos:station:USF.COMPS:C10:1,2010-10-03T07:00:00Z,27.1690,-82.9260,4.0,153.43494882292,4.4721359549996,-99999.0,'1111122,1111122,1199999999' 
COMPS,ioos:station:USF.COMPS:C10:1,2010-10-03T08:00:00Z,27.1690,-82.9260,4.0,140.19442890773,7.8102496759067,-99999.0,'1111122,1111122,1199999999' 
COMPS,ioos:station:USF.COMPS:C10:1,2010-10-03T09:00:00Z,27.1690,-82.9260,4.0,135.0,8.4852813742386,-99999.0,'1111122,1111122,1199999999' 
COMPS,ioos:station:USF.COMPS:C10:1,2010-10-03T10:00:00Z,27.1690,-82.9260,4.0,122.00538320808,9.4339811320566,-99999.0,'1111122,1111122,1199999999' 
COMPS,ioos:station:USF.COMPS:C10:1,2010-10-03T11:00:00Z,27.1690,-82.9260,4.0,140.19442890773,7.8102496759067,-99999.0,'1111122,1111122,1199999999' 
COMPS,ioos:station:USF.COMPS:C10:1,2010-10-03T12:00:00Z,27.1690,-82.9260,4.0,142.1250163489,11.401754250991,-99999.0,'1111122,1111122,1199999999' 
COMPS,ioos:station:USF.COMPS:C10:1,2010-10-03T13:00:00Z,27.1690,-82.9260,4.0,146.30993247402,10.816653826392,-99999.0,'1111122,1111122,1199999999' 
COMPS,ioos:station:USF.COMPS:C10:1,2010-10-03T14:00:00Z,27.1690,-82.9260,4.0,171.25383773744,13.152946437966,-99999.0,'1111122,1111122,1199999999' 
COMPS,ioos:station:USF.COMPS:C10:1,2010-10-03T15:00:00Z,27.1690,-82.9260,4.0,175.23635830927,12.041594578792,-99999.0,'1111122,1111122,1199999999' 
COMPS,ioos:station:USF.COMPS:C10:1,2010-10-03T16:00:00Z,27.1690,-82.9260,4.0,180.0,12.0,-99999.0,'1111122,1111122,1199999999' 
COMPS,ioos:station:USF.COMPS:C10:1,2010-10-03T17:00:00Z,27.1690,-82.9260,4.0,185.19442890773,11.045361017187,-99999.0,'1111122,1111122,1199999999' 
COMPS,ioos:station:USF.COMPS:C10:1,2010-10-03T18:00:00Z,27.1690,-82.9260,4.0,184.76364169073,12.041594578792,-99999.0,'1111122,1111122,1199999999' 
COMPS,ioos:station:USF.COMPS:C10:1,2010-10-03T19:00:00Z,27.1690,-82.9260,4.0,180.0,6.0,-99999.0,'1111122,1111122,1199999999' 
COMPS,ioos:station:USF.COMPS:C10:1,2010-10-03T20:00:00Z,27.1690,-82.9260,4.0,146.30993247402,7.211102550928,-99999.0,'1111122,1111122,1199999999' 
COMPS,ioos:station:USF.COMPS:C10:1,2010-10-03T21:00:00Z,27.1690,-82.9260,4.0,150.25511870306,8.0622577482985,-99999.0,'1111122,1111122,1199999999' 
COMPS,ioos:station:USF.COMPS:C10:1,2010-10-03T22:00:00Z,27.1690,-82.9260,4.0,127.8749836511,11.401754250991,-99999.0,'1111122,1111122,1199999999' 
COMPS,ioos:station:USF.COMPS:C10:1,2010-10-03T23:00:00Z,27.1690,-82.9260,4.0,123.69006752598,10.816653826392,-99999.0,'1111122,1111122,1199999999' 
COMPS,ioos:station:USF.COMPS:C10:1,2010-10-04T00:00:00Z,27.1690,-82.9260,4.0,163.30075576601,10.440306508911,-99999.0,'1111122,1111122,1199999999' 
COMPS,ioos:station:USF.COMPS:C10:1,2010-10-04T01:00:00Z,27.1690,-82.9260,4.0,142.59464336859,21.400934559033,-99999.0,'1111122,1111122,1199999999' 
COMPS,ioos:station:USF.COMPS:C10:1,2010-10-04T02:00:00Z,27.1690,-82.9260,4.0,156.03751102542,19.697715603592,-99999.0,'1111122,1111122,1199999999' 
COMPS,ioos:station:USF.COMPS:C10:1,2010-10-04T03:00:00Z,27.1690,-82.9260,4.0,167.19573393471,22.561028345357,-99999.0,'1111122,1111122,1199999999' 
COMPS,ioos:station:USF.COMPS:C10:1,2010-10-04T04:00:00Z,27.1690,-82.9260,4.0,171.86989764584,21.213203435596,-99999.0,'1111122,1111122,1199999999' 
COMPS,ioos:station:USF.COMPS:C10:1,2010-10-04T05:00:00Z,27.1690,-82.9260,4.0,171.0273733851,19.235384061671,-99999.0,'1111122,1111122,1199999999' 
COMPS,ioos:station:USF.COMPS:C10:1,2010-10-04T06:00:00Z,27.1690,-82.9260,4.0,162.64597536374,16.76305461424,-99999.0,'1111122,1111122,1199999999' 
COMPS,ioos:station:USF.COMPS:C10:1,2010-10-04T07:00:00Z,27.1690,-82.9260,4.0,156.80140948635,15.231546211728,-99999.0,'1111122,1111122,1199999999' 
COMPS,ioos:station:USF.COMPS:C10:1,2010-10-04T08:00:00Z,27.1690,-82.9260,4.0,156.80140948635,15.231546211728,-99999.0,'1111122,1111122,1199999999' 
COMPS,ioos:station:USF.COMPS:C10:1,2010-10-04T09:00:00Z,27.1690,-82.9260,4.0,138.01278750418,13.453624047074,-99999.0,'1111122,1111122,1199999999' 
COMPS,ioos:station:USF.COMPS:C10:1,2010-10-04T10:00:00Z,27.1690,-82.9260,4.0,137.72631099391,14.866068747319,-99999.0,'1111122,1111122,1199999999' 
COMPS,ioos:station:USF.COMPS:C10:1,2010-10-04T11:00:00Z,27.1690,-82.9260,4.0,180.0,2.0,-99999.0,'1111122,1111122,1199999999' 
COMPS,ioos:station:USF.COMPS:C10:1,2010-10-04T12:00:00Z,27.1690,-82.9260,4.0,137.12109639666,19.104973174543,-99999.0,'1111122,1111122,1199999999' 
COMPS,ioos:station:USF.COMPS:C10:1,2010-10-04T13:00:00Z,27.1690,-82.9260,4.0,144.78240703181,20.808652046685,-99999.0,'1111122,1111122,1199999999' 
COMPS,ioos:station:USF.COMPS:C10:1,2010-10-04T14:00:00Z,27.1690,-82.9260,4.0,151.18920625703,22.825424421027,-99999.0,'1111122,1111122,1199999999' 
COMPS,ioos:station:USF.COMPS:C10:1,2010-10-04T15:00:00Z,27.1690,-82.9260,4.0,163.07248693585,24.041630560343,-99999.0,'1111122,1111122,1199999999' 
COMPS,ioos:station:USF.COMPS:C10:1,2010-10-04T16:00:00Z,27.1690,-82.9260,4.0,172.56859202883,23.194827009486,-99999.0,'1111122,1111122,1199999999' 
COMPS,ioos:station:USF.COMPS:C10:1,2010-10-04T17:00:00Z,27.1690,-82.9260,4.0,177.87890360334,27.018512172213,-99999.0,'1111122,1111122,1199999999' 
COMPS,ioos:station:USF.COMPS:C10:1,2010-10-04T18:00:00Z,27.1690,-82.9260,4.0,174.80557109227,22.090722034375,-99999.0,'1111122,1111122,1199999999' 
COMPS,ioos:station:USF.COMPS:C10:1,2010-10-04T19:00:00Z,27.1690,-82.9260,4.0,180.0,13.0,-99999.0,'1111122,1111122,1199999999' 
COMPS,ioos:station:USF.COMPS:C10:1,2010-10-04T20:00:00Z,27.1690,-82.9260,4.0,169.38034472384,16.2788205961,-99999.0,'1111122,1111122,1199999999' 
COMPS,ioos:station:USF.COMPS:C10:1,2010-10-04T21:00:00Z,27.1690,-82.9260,4.0,155.22485943117,14.317821063276,-99999.0,'1111122,1111122,1199999999' 
COMPS,ioos:station:USF.COMPS:C10:1,2010-10-04T22:00:00Z,27.1690,-82.9260,4.0,142.43140797117,16.401219466857,-99999.0,'1111122,1111122,1199999999' 
COMPS,ioos:station:USF.COMPS:C10:1,2010-10-04T23:00:00Z,27.1690,-82.9260,4.0,132.510447078,16.2788205961,-99999.0,'1111122,1111122,1199999999' 
COMPS,ioos:station:USF.COMPS:C10:1,2010-10-05T00:00:00Z,27.1690,-82.9260,4.0,132.510447078,16.2788205961,-99999.0,'1111122,1111122,1199999999' 
COMPS,ioos:station:USF.COMPS:C10:1,2010-10-05T01:00:00Z,27.1690,-82.9260,4.0,135.0,24.041630560343,-99999.0,'1111122,1111122,1199999999' 
COMPS,ioos:station:USF.COMPS:C10:1,2010-10-05T02:00:00Z,27.1690,-82.9260,4.0,141.34019174591,25.612496949731,-99999.0,'1111122,1111122,1199999999' 
COMPS,ioos:station:USF.COMPS:C10:1,2010-10-05T03:00:00Z,27.1690,-82.9260,4.0,148.6713071322,26.925824035673,-99999.0,'1111122,1111122,1199999999' 
COMPS,ioos:station:USF.COMPS:C10:1,2010-10-05T04:00:00Z,27.1690,-82.9260,4.0,149.74356283647,27.7848879789,-99999.0,'1111122,1111122,1199999999' 
COMPS,ioos:station:USF.COMPS:C10:1,2010-10-05T05:00:00Z,27.1690,-82.9260,4.0,158.96248897458,27.856776554368,-99999.0,'1111122,1111122,1199999999' 
COMPS,ioos:station:USF.COMPS:C10:1,2010-10-05T06:00:00Z,27.1690,-82.9260,4.0,166.5042667192,25.709920264365,-99999.0,'1111122,1111122,1199999999' 
COMPS,ioos:station:USF.COMPS:C10:1,2010-10-05T07:00:00Z,27.1690,-82.9260,4.0,159.44395478042,25.632011235953,-99999.0,'1111122,1111122,1199999999' 
COMPS,ioos:station:USF.COMPS:C10:1,2010-10-05T08:00:00Z,27.1690,-82.9260,4.0,147.72435568542,22.472205054244,-99999.0,'1111122,1111122,1199999999' 
COMPS,ioos:station:USF.COMPS:C10:1,2010-10-05T09:00:00Z,27.1690,-82.9260,4.0,144.78240703181,20.808652046685,-99999.0,'1111122,1111122,1199999999' 
COMPS,ioos:station:USF.COMPS:C10:1,2010-10-05T10:00:00Z,27.1690,-82.9260,4.0,142.59464336859,21.400934559033,-99999.0,'1111122,1111122,1199999999' 
COMPS,ioos:station:USF.COMPS:C10:1,2010-10-05T11:00:00Z,27.1690,-82.9260,4.0,122.73522627211,16.643316977093,-99999.0,'1111122,1111122,1199999999' 
COMPS,ioos:station:USF.COMPS:C10:1,2010-10-05T12:00:00Z,27.1690,-82.9260,4.0,142.69605172202,26.400757564888,-99999.0,'1111122,1111122,1199999999' 
COMPS,ioos:station:USF.COMPS:C10:1,2010-10-05T13:00:00Z,27.1690,-82.9260,4.0,139.18491612512,29.068883707497,-99999.0,'1111122,1111122,1199999999' 
COMPS,ioos:station:USF.COMPS:C10:1,2010-10-05T14:00:00Z,27.1690,-82.9260,4.0,143.13010235416,30.0,-99999.0,'1111122,1111122,1199999999' 
COMPS,ioos:station:USF.COMPS:C10:1,2010-10-05T15:00:00Z,27.1690,-82.9260,4.0,155.22485943117,28.635642126553,-99999.0,'1111122,1111122,1199999999' 
COMPS,ioos:station:USF.COMPS:C10:1,2010-10-05T17:00:00Z,27.1690,-82.9260,4.0,156.25050550713,27.313000567495,-99999.0,'1111122,1111122,1199999999' 
COMPS,ioos:station:USF.COMPS:C10:1,2010-10-05T18:00:00Z,27.1690,-82.9260,4.0,153.43494882292,26.832815729997,-99999.0,'1111122,1111122,1199999999' 
COMPS,ioos:station:USF.COMPS:C10:1,2010-10-05T19:00:00Z,27.1690,-82.9260,4.0,160.70995378081,21.189620100417,-99999.0,'1111122,1111122,1199999999' 
COMPS,ioos:station:USF.COMPS:C10:1,2010-10-05T20:00:00Z,27.1690,-82.9260,4.0,157.38013505196,26.0,-99999.0,'1111122,1111122,1199999999' 
COMPS,ioos:station:USF.COMPS:C10:1,2010-10-05T21:00:00Z,27.1690,-82.9260,4.0,150.52411099675,26.419689627246,-99999.0,'1111122,1111122,1199999999' 
COMPS,ioos:station:USF.COMPS:C10:1,2010-10-05T22:00:00Z,27.1690,-82.9260,4.0,138.01278750418,26.907248094147,-99999.0,'1111122,1111122,1199999999' 
COMPS,ioos:station:USF.COMPS:C10:1,2010-10-05T23:00:00Z,27.1690,-82.9260,4.0,151.18920625703,22.825424421027,-99999.0,'1111122,1111122,1199999999' 
COMPS,ioos:station:USF.COMPS:C10:1,2010-10-06T00:00:00Z,27.1690,-82.9260,4.0,140.90614111377,20.615528128088,-99999.0,'1111122,1111122,1199999999' 
COMPS,ioos:station:USF.COMPS:C10:1,2010-10-06T01:00:00Z,27.1690,-82.9260,4.0,142.81529354677,36.400549446403,-99999.0,'1111122,1111122,1199999999' 
COMPS,ioos:station:USF.COMPS:C10:1,2010-10-06T02:00:00Z,27.1690,-82.9260,4.0,148.78159723565,38.587562763149,-99999.0,'1111122,1111122,1199999999' 
COMPS,ioos:station:USF.COMPS:C10:1,2010-10-06T03:00:00Z,27.1690,-82.9260,4.0,152.78388844269,39.357337308309,-99999.0,'1111122,1111122,1199999999' 
COMPS,ioos:station:USF.COMPS:C10:1,2010-10-06T04:00:00Z,27.1690,-82.9260,4.0,163.61045966597,35.440090293339,-99999.0,'1111122,1111122,1199999999' 
COMPS,ioos:station:USF.COMPS:C10:1,2010-10-06T05:00:00Z,27.1690,-82.9260,4.0,176.82016988014,36.05551275464,-99999.0,'1111122,1111122,1199999999' 
COMPS,ioos:station:USF.COMPS:C10:1,2010-10-06T06:00:00Z,27.1690,-82.9260,4.0,178.090847567,30.016662039607,-99999.0,'1111122,1111122,1199999999' 
COMPS,ioos:station:USF.COMPS:C10:1,2010-10-06T07:00:00Z,27.1690,-82.9260,4.0,180.0,31.0,-99999.0,'1111122,1111122,1199999999' 
COMPS,ioos:station:USF.COMPS:C10:1,2010-10-06T08:00:00Z,27.1690,-82.9260,4.0,180.0,25.0,-99999.0,'1111122,1111122,1199999999' 
COMPS,ioos:station:USF.COMPS:C10:1,2010-10-06T09:00:00Z,27.1690,-82.9260,4.0,156.03751102542,19.697715603592,-99999.0,'1111122,1111122,1199999999' 
COMPS,ioos:station:USF.COMPS:C10:1,2010-10-06T10:00:00Z,27.1690,-82.9260,4.0,161.56505117708,22.135943621179,-99999.0,'1111122,1111122,1199999999' 
COMPS,ioos:station:USF.COMPS:C10:1,2010-10-06T11:00:00Z,27.1690,-82.9260,4.0,153.43494882292,11.180339887499,-99999.0,'1111122,1111122,1199999999' 
COMPS,ioos:station:USF.COMPS:C10:1,2010-10-06T12:00:00Z,27.1690,-82.9260,4.0,139.6354634269,26.248809496813,-99999.0,'1111122,1111122,1199999999' 
COMPS,ioos:station:USF.COMPS:C10:1,2010-10-06T13:00:00Z,27.1690,-82.9260,4.0,135.0,31.112698372208,-99999.0,'1111122,1111122,1199999999' 
COMPS,ioos:station:USF.COMPS:C10:1,2010-10-06T14:00:00Z,27.1690,-82.9260,4.0,150.01836063115,30.016662039607,-99999.0,'1111122,1111122,1199999999' 
COMPS,ioos:station:USF.COMPS:C10:1,2010-10-06T15:00:00Z,27.1690,-82.9260,4.0,149.85861444792,35.84689665787,-99999.0,'1111122,1111122,1199999999' 
COMPS,ioos:station:USF.COMPS:C10:1,2010-10-06T16:00:00Z,27.1690,-82.9260,4.0,158.83874018317,33.241540277189,-99999.0,'1111122,1111122,1199999999' 
COMPS,ioos:station:USF.COMPS:C10:1,2010-10-06T17:00:00Z,27.1690,-82.9260,4.0,161.02959219151,33.837848631377,-99999.0,'1111122,1111122,1199999999' 
COMPS,ioos:station:USF.COMPS:C10:1,2010-10-06T18:00:00Z,27.1690,-82.9260,4.0,168.36636600106,34.71310991542,-99999.0,'1111122,1111122,1199999999' 
COMPS,ioos:station:USF.COMPS:C10:1,2010-10-06T19:00:00Z,27.1690,-82.9260,4.0,164.05460409908,29.120439557122,-99999.0,'1111122,1111122,1199999999' 
COMPS,ioos:station:USF.COMPS:C10:1,2010-10-06T20:00:00Z,27.1690,-82.9260,4.0,163.49563861824,28.160255680657,-99999.0,'1111122,1111122,1199999999' 
COMPS,ioos:station:USF.COMPS:C10:1,2010-10-06T21:00:00Z,27.1690,-82.9260,4.0,156.50143432405,25.079872407969,-99999.0,'1111122,1111122,1199999999' 
COMPS,ioos:station:USF.COMPS:C10:1,2010-10-06T22:00:00Z,27.1690,-82.9260,4.0,150.25511870306,24.186773244896,-99999.0,'1111122,1111122,1199999999' 
COMPS,ioos:station:USF.COMPS:C10:1,2010-10-06T23:00:00Z,27.1690,-82.9260,4.0,161.56505117708,9.4868329805051,-99999.0,'1111122,1111122,1199999999' 
COMPS,ioos:station:USF.COMPS:C10:1,2010-10-07T00:00:00Z,27.1690,-82.9260,4.0,150.94539590092,10.295630140987,-99999.0,'1111122,1111122,1199999999' 
COMPS,ioos:station:USF.COMPS:C10:1,2010-10-07T01:00:00Z,27.1690,-82.9260,4.0,141.34019174591,32.015621187164,-99999.0,'1111122,1111122,1199999999' 
COMPS,ioos:station:USF.COMPS:C10:1,2010-10-07T02:00:00Z,27.1690,-82.9260,4.0,142.76516601843,31.400636936215,-99999.0,'1111122,1111122,1199999999' 
COMPS,ioos:station:USF.COMPS:C10:1,2010-10-07T03:00:00Z,27.1690,-82.9260,4.0,147.80426606529,31.906112267088,-99999.0,'1111122,1111122,1199999999' 
COMPS,ioos:station:USF.COMPS:C10:1,2010-10-07T04:00:00Z,27.1690,-82.9260,4.0,156.80140948635,30.463092423456,-99999.0,'1111122,1111122,1199999999' 
COMPS,ioos:station:USF.COMPS:C10:1,2010-10-07T05:00:00Z,27.1690,-82.9260,4.0,165.06858282186,31.04834939252,-99999.0,'1111122,1111122,1199999999' 
COMPS,ioos:station:USF.COMPS:C10:1,2010-10-07T06:00:00Z,27.1690,-82.9260,4.0,174.47245984834,31.144823004795,-99999.0,'1111122,1111122,1199999999' 
COMPS,ioos:station:USF.COMPS:C10:1,2010-10-07T07:00:00Z,27.1690,-82.9260,4.0,182.12109639666,27.018512172213,-99999.0,'1111122,1111122,1199999999' 
COMPS,ioos:station:USF.COMPS:C10:1,2010-10-07T08:00:00Z,27.1690,-82.9260,4.0,182.72631099391,21.023796041629,-99999.0,'1111122,1111122,1199999999' 
COMPS,ioos:station:USF.COMPS:C10:1,2010-10-07T09:00:00Z,27.1690,-82.9260,4.0,180.0,18.0,-99999.0,'1111122,1111122,1199999999' 
COMPS,ioos:station:USF.COMPS:C10:1,2010-10-07T10:00:00Z,27.1690,-82.9260,4.0,158.96248897458,13.928388277184,-99999.0,'1111122,1111122,1199999999' 
COMPS,ioos:station:USF.COMPS:C10:1,2010-10-07T11:00:00Z,27.1690,-82.9260,4.0,104.03624346793,4.1231056256177,-99999.0,'1111122,1111122,1199999999' 
COMPS,ioos:station:USF.COMPS:C10:1,2010-10-07T12:00:00Z,27.1690,-82.9260,4.0,122.00538320808,18.867962264113,-99999.0,'1111122,1111122,1199999999' 
COMPS,ioos:station:USF.COMPS:C10:1,2010-10-07T14:00:00Z,27.1690,-82.9260,4.0,126.0273733851,27.202941017471,-99999.0,'1111122,1111122,1199999999' 
COMPS,ioos:station:USF.COMPS:C10:1,2010-10-07T15:00:00Z,27.1690,-82.9260,4.0,130.81508387488,29.068883707497,-99999.0,'1111122,1111122,1199999999' 
COMPS,ioos:station:USF.COMPS:C10:1,2010-10-07T16:00:00Z,27.1690,-82.9260,4.0,136.46880071439,27.586228448267,-99999.0,'1111122,1111122,1199999999' 
COMPS,ioos:station:USF.COMPS:C10:1,2010-10-07T17:00:00Z,27.1690,-82.9260,4.0,144.24611274556,30.805843601499,-99999.0,'1111122,1111122,1199999999' 
COMPS,ioos:station:USF.COMPS:C10:1,2010-10-07T18:00:00Z,27.1690,-82.9260,4.0,151.55707137564,27.294688127912,-99999.0,'1111122,1111122,1199999999' 
COMPS,ioos:station:USF.COMPS:C10:1,2010-10-07T19:00:00Z,27.1690,-82.9260,4.0,158.55226367289,30.083217912983,-99999.0,'1111122,1111122,1199999999' 
COMPS,ioos:station:USF.COMPS:C10:1,2010-10-07T20:00:00Z,27.1690,-82.9260,4.0,157.83365417792,29.154759474227,-99999.0,'1111122,1111122,1199999999' 
COMPS,ioos:station:USF.COMPS:C10:1,2010-10-07T21:00:00Z,27.1690,-82.9260,4.0,155.55604521958,24.166091947189,-99999.0,'1111122,1111122,1199999999' 
COMPS,ioos:station:USF.COMPS:C10:1,2010-10-07T22:00:00Z,27.1690,-82.9260,4.0,148.57043438516,21.095023109729,-99999.0,'1111122,1111122,1199999999' 